This demonstration page uses our WeatherBlox Daily Observations layout. Learn more.

Left ArrowRight Arrow

40.92945, -100.16068

Hourly Observations for February 12, 2020

Temp ( °F °C ) Dew Point ( °F °C ) Humidity (%) Winds ( mph kmh ) Pressure ( in mb ) Visibility ( mi km ) Precip ( " mm )
12:15 am 00:15 Clear 31 -0.5 25 -4 77 77 SSW 13 20 29.99 1016 10 16 N/A
12:35 am 00:35 Clear 31 -0.7 25 -4.1 78 78 SW 13 20 29.98 1015 10 16 N/A
12:55 am 00:55 Clear 31 -0.7 25 -4.1 78 78 SSW 10 17 29.98 1015 10 16 N/A
1:15 am 01:15 Clear 30 -1 25 -4.1 80 80 SSW 12 19 29.98 1015 10 16 N/A
1:35 am 01:35 Clear 30 -1 25 -4.1 80 80 SW 8 13 29.98 1015 10 16 N/A
1:55 am 01:55 Clear 29 -1.4 24 -4.2 81 81 SSW 12 19 29.98 1015 10 16 N/A
2:15 am 02:15 Clear 30 -1.2 24 -4.2 80 80 SSW 14 22 29.96 1015 10 16 N/A
2:35 am 02:35 Clear 30 -1.2 24 -4.2 80 80 SSW 13 20 29.95 1014 10 16 N/A
2:55 am 02:55 Clear 30 -1.1 24 -4.3 79 79 SW 12 19 29.94 1014 10 16 N/A
3:15 am 03:15 Clear 30 -1.1 24 -4.2 80 80 WSW 10 17 29.94 1014 10 16 N/A
3:35 am 03:35 Clear 29 -1.4 24 -4.3 81 81 SW 10 17 29.95 1014 10 16 N/A
3:55 am 03:55 Clear 28 -2 24 -4.5 83 83 SW 14 22 29.93 1013 10 16 N/A
4:15 am 04:15 Clear 27 -2.7 23 -4.9 85 85 SW 9 15 29.92 1013 10 16 N/A
4:35 am 04:35 Clear 26 -3.1 23 -5.2 86 86 SSW 6 9 29.94 1014 10 16 N/A
4:55 am 04:55 Clear 26 -3.3 23 -5.2 87 87 WSW 6 9 29.93 1014 10 16 N/A
5:15 am 05:15 Clear 24 -4.5 22 -5.8 91 91 SW 3 6 29.94 1014 10 16 N/A
5:35 am 05:35 Clear 23 -5.2 20 -6.4 91 91 SW 5 7 29.93 1013 10 16 N/A
5:55 am 05:55 Clear 22 -5.5 20 -6.6 92 92 WSW 6 9 29.93 1014 10 16 N/A
6:15 am 06:15 Clear 22 -5.6 20 -6.6 93 93 W 3 6 29.93 1014 10 16 N/A
6:35 am 06:35 Clear 22 -5.4 20 -6.5 92 92 W 7 11 29.93 1014 10 16 N/A
6:55 am 06:55 Clear 23 -5.1 20 -6.5 90 90 WNW 7 11 29.92 1013 10 16 N/A
7:15 am 07:15 Clear 23 -5.1 21 -6.3 91 91 W 6 9 29.92 1013 10 16 N/A
7:35 am 07:35 Mostly Cloudy 23 -5.2 21 -6.3 92 92 W 3 6 29.92 1013 10 16 N/A
7:55 am 07:55 Cloudy 24 -4.7 21 -6 91 91 WSW 3 6 29.92 1013 10 16 N/A
8:15 am 08:15 Cloudy 25 -3.9 23 -5.2 91 91 W 7 11 29.94 1014 10 16 N/A
8:35 am 08:35 Cloudy 26 -3.1 23 -4.8 88 88 W 7 11 29.95 1014 10 16 N/A
8:55 am 08:55 Cloudy 28 -2.2 24 -4.3 86 86 WNW 8 13 29.94 1014 10 16 N/A
9:15 am 09:15 Cloudy 28 -2 25 -4.1 86 86 WNW 8 13 29.95 1014 10 16 N/A
9:35 am 09:35 Cloudy 29 -1.5 25 -3.7 85 85 NW 8 13 29.94 1014 10 16 N/A
9:55 am 09:55 Cloudy 31 -0.7 26 -3.2 83 83 WNW 10 17 29.93 1014 10 16 N/A
10:15 am 10:15 Mostly Cloudy 32 0.1 27 -2.9 80 80 NW 10 17 29.92 1013 10 16 N/A
10:35 am 10:35 Cloudy 35 1.6 28 -2.5 74 74 NNW 12 19 29.91 1013 10 16 N/A
10:55 am 10:55 Cloudy 37 2.6 28 -2.4 70 70 NNW 9 15 29.91 1013 10 16 N/A
11:15 am 11:15 Cloudy 38 3.3 29 -1.8 70 70 NW 8 13 29.90 1013 10 16 N/A
11:35 am 11:35 Cloudy 42 5.5 28 -2.2 58 58 N 16 26 29.88 1012 10 16 N/A
11:55 am 11:55 Cloudy 43 6.2 28 -2.5 54 54 NNW 22 35 29.89 1012 10 16 N/A
12:15 pm 12:15 Cloudy 43 6 27 -2.6 54 54 NNW 20 31 29.89 1012 10 16 N/A
12:35 pm 12:35 Cloudy 43 6 27 -2.9 53 53 NNW 20 31 29.89 1012 10 16 N/A
12:55 pm 12:55 Cloudy 43 5.9 27 -2.7 54 54 NNW 17 28 29.89 1012 10 16 N/A
1:15 pm 13:15 Cloudy 42 5.6 27 -2.6 56 56 NNW 23 37 29.90 1013 10 16 N/A
1:35 pm 13:35 Cloudy 41 5 28 -2.1 60 60 NNW 31 50 29.92 1013 10 16 N/A
1:55 pm 13:55 Cloudy 36 2 28 -2.5 72 72 N 30 48 29.97 1015 10 16 N/A
2:15 pm 14:15 Cloudy 32 0.1 26 -3.5 77 77 N 28 44 30.01 1016 10 16 N/A
2:35 pm 14:35 Cloudy 30 -0.9 23 -4.9 75 75 N 30 48 30.04 1017 10 16 N/A
2:55 pm 14:55 Cloudy 29 -1.5 22 -5.3 76 76 N 25 41 30.06 1018 10 16 N/A
3:15 pm 15:15 Cloudy 28 -2.5 20 -6.4 75 75 N 33 54 30.08 1019 10 16 N/A
3:35 pm 15:35 Cloudy 29 -1.9 20 -6.8 70 70 N 26 43 30.09 1019 10 16 N/A
3:55 pm 15:55 Mostly Cloudy 28 -2.2 19 -7.5 67 67 N 28 44 30.11 1020 10 16 N/A
4:15 pm 16:15 Partly Cloudy 27 -2.6 18 -7.9 67 67 N 32 52 30.12 1020 10 16 N/A
4:35 pm 16:35 Sunny 26 -3.2 17 -8.3 68 68 N 30 48 30.15 1021 10 16 N/A
4:55 pm 16:55 Partly Cloudy 25 -3.8 16 -8.8 69 69 N 31 50 30.18 1022 10 16 N/A
5:15 pm 17:15 Partly Cloudy 24 -4.3 15 -9.2 69 69 N 24 39 30.19 1022 10 16 N/A
5:35 pm 17:35 Partly Cloudy 23 -5.2 14 -10 69 69 N 23 37 30.21 1023 10 16 N/A
5:55 pm 17:55 Sunny 22 -5.5 14 -10.2 70 70 N 22 35 30.23 1024 10 16 N/A
6:15 pm 18:15 Partly Cloudy 21 -5.9 13 -10.4 71 71 N 17 28 30.26 1025 10 16 N/A
6:35 pm 18:35 Partly Cloudy 20 -6.6 12 -11 71 71 N 23 37 30.28 1026 10 16 N/A
6:55 pm 18:55 Clear 19 -7.5 10 -12 70 70 N 22 35 30.31 1027 10 16 N/A
7:15 pm 19:15 Clear 17 -8.2 9 -13 69 69 N 20 31 30.35 1028 10 16 N/A
7:35 pm 19:35 Partly Cloudy 17 -8.6 8 -13.3 69 69 N 17 28 30.36 1028 10 16 N/A
7:55 pm 19:55 Clear 16 -9.1 7 -14 68 68 N 20 31 30.37 1029 10 16 N/A
8:15 pm 20:15 Clear 15 -9.7 6 -14.3 69 69 N 21 33 30.38 1029 10 16 N/A
8:35 pm 20:35 Clear 14 -10.2 5 -15.1 68 68 N 21 33 30.39 1029 10 16 N/A
8:55 pm 20:55 Clear 13 -10.7 4 -15.5 68 68 N 17 28 30.42 1030 10 16 N/A
9:55 pm 21:55 Clear 11 -11.6 3 -16 70 70 N 13 20 30.45 1031 10 16 N/A
10:15 pm 22:15 Clear 10 -12 4 -15.8 74 74 N 12 19 30.45 1031 10 16 N/A
10:35 pm 22:35 Clear 10 -12 2 -16.6 69 69 N 9 15 30.46 1032 10 16 N/A
10:55 pm 22:55 Clear 10 -12.5 -3 -19.2 58 58 N 16 26 30.48 1032 10 16 N/A
11:15 pm 23:15 Clear 9 -13 -5 -20.4 54 54 N 15 24 30.49 1033 10 16 N/A
11:35 pm 23:35 Clear 8 -13.2 -5 -20.6 54 54 N 15 24 30.51 1033 10 16 N/A
11:55 pm 23:55 Clear 8 -13.5 -5 -20.3 57 57 N 10 17 30.51 1033 10 16 N/A

Powered by AerisWeather